Content
SEND FEEDBACK

Daily
Averages
Monthly
Summary
United States of America

RAPID CITY, SOUTH DAKOTA


Home > North America > United States > South Dakota
Elevation: 3162 feet     Latitude: 44 03N     Longitude: 103 04W

WEATHER
 
SELECT A DAY
Number of Records: 203,340;   Date Range: 1/1/95 - 10/23/14
 
SHARE

PRINT THIS DATA

[ ← Previous Day ]
WEATHER ALMANAC - AUGUST 25, 2013
[ Next Day → ]
[ °C ]   °F
Weather ElementAverageHighLow
Temperature80.9 °F96.1 °F (2:52 pm)66.9 °F (3:52 am)
Dewpoint57.2 °F61 °F (8:52 pm)53.1 °F (3:52 pm)
Humidity47.2 %68 % (3:52 am)26 % (3:52 pm)
Barometer29.90 in29.94 in (7:52 am)29.86 in (1:52 am)
Wind Speed6.9 mph16.1 mph (2:52 pm)
Wind Gust20.7 mph (2:52 pm)
Weather ElementAverage
Visibility10 mi
Wind DirectionSSW (211.7 °)

Weather ElementTotal
Precipitation---
Cooling Degree Days16.5 (Base 65)
Growing Degree Days31.5 (Base 50)
Averaged from 23 records on August 25, 2013
WEATHER CONDITIONS BREAKOUT
WIND DIRECTION BREAKOUT
WEATHER BY HOUR - AUGUST 25, 2013
[ °C ]   °F
Local TimeTemperatureDewpointHumidityBarometerVisibilityWind DirectionWind SpeedGust SpeedPrecipitationEventsConditions
1:52 AM71.1 °F57.0 °F61 %29.86 in10.0 miNW (320°)6.9 mphClear
2:52 AM68.0 °F55.9 °F65 %29.87 in10.0 miWNW (300°)5.8 mphClear
3:52 AM66.9 °F55.9 °F68 %29.88 in10.0 miWNW (290°)4.6 mphClear
4:52 AM66.9 °F55.9 °F68 %29.88 in10.0 miWNW (300°)8.1 mphClear
5:52 AM68.0 °F55.0 °F63 %29.90 in10.0 miNW (310°)9.2 mphClear
6:52 AM69.1 °F55.0 °F61 %29.93 in10.0 miWNW (290°)4.6 mphClear
7:52 AM75.0 °F55.0 °F50 %29.94 in10.0 miWNW (290°)5.8 mphClear
8:52 AM81.0 °F57.0 °F44 %29.94 in10.0 miNW (320°)5.8 mphClear
9:52 AM84.9 °F57.0 °F38 %29.94 in10.0 miNorth (10°)5.8 mphClear
10:52 AM87.1 °F57.0 °F36 %29.94 in10.0 miNorth (350°)3.5 mphClear
11:52 AM90.0 °F57.0 °F33 %29.93 in10.0 miVariable5.8 mphClear
12:52 PM93.0 °F55.9 °F29 %29.91 in10.0 miSouth (170°)9.2 mphClear
1:52 PM95.0 °F55.9 °F27 %29.90 in10.0 miSouth (170°)8.1 mph16.1 mphClear
2:52 PM96.1 °F57.9 °F28 %29.89 in10.0 miSE (140°)16.1 mph20.7 mphClear
3:52 PM93.0 °F53.1 °F26 %29.89 in10.0 miSSE (160°)11.5 mphClear
4:52 PM91.9 °F55.9 °F30 %29.88 in10.0 miESE (120°)8.1 mphClear
5:52 PM91.0 °F57.0 °F32 %29.88 in10.0 miSE (130°)9.2 mphClear
6:52 PM88.0 °F60.1 °F39 %29.88 in10.0 miESE (120°)3.5 mphMostly Cloudy
7:52 PM82.9 °F60.1 °F46 %29.90 in10.0 miENE (60°)8.1 mphScattered Clouds
8:52 PM77.0 °F61.0 °F58 %29.91 in10.0 miNNE (20°)6.9 mphClear
9:52 PM75.0 °F61.0 °F62 %29.91 in10.0 miNNW (330°)3.5 mphClear
10:52 PM75.0 °F60.1 °F60 %29.90 in10.0 miNNW (340°)5.8 mphClear
11:52 PM73.9 °F60.1 °F62 %29.89 in10.0 miNNW (330°)3.5 mphClear
Hourly data recorded from KRAP, located miles away from Rapid City, South Dakota







STORIES FROM OUR PARTNERS